Time,TemperatureF,DewpointF,PressureIn,WindDirection,WindDirectionDegrees,WindSpeedMPH,WindSpeedGustMPH,Humidity,HourlyPrecipIn,Conditions,Clouds,dailyrainin,SoftwareType,DateUTC
2016-02-10 00:01:00,58.4,50.9,30.03,West,269,3.0,3.0,76,0.00,,---,0.00,VWS V15.00,2016-02-10 05:01:00,
2016-02-10 00:06:00,58.4,50.9,30.03,West,263,2.0,5.0,76,0.00,,---,0.00,VWS V15.00,2016-02-10 05:06:00,
2016-02-10 00:10:00,58.4,50.9,30.03,West,262,1.0,5.0,76,0.00,,---,0.00,VWS V15.00,2016-02-10 05:10:00,
2016-02-10 00:15:00,58.4,50.9,30.03,West,277,4.0,5.0,76,0.00,,---,0.00,VWS V15.00,2016-02-10 05:15:00,
2016-02-10 00:20:00,58.4,50.9,30.03,WNW,299,2.0,6.0,76,0.00,,---,0.00,VWS V15.00,2016-02-10 05:20:00,
2016-02-10 00:25:00,58.4,50.9,30.03,West,271,3.0,6.0,76,0.00,,---,0.00,VWS V15.00,2016-02-10 05:25:00,
2016-02-10 00:30:00,58.4,50.9,30.03,West,268,2.0,3.0,76,0.00,,---,0.00,VWS V15.00,2016-02-10 05:30:00,
2016-02-10 00:35:00,58.5,51.0,30.03,West,275,2.0,5.0,76,0.00,,---,0.00,VWS V15.00,2016-02-10 05:35:00,
2016-02-10 00:40:00,58.5,51.0,30.03,West,274,4.0,6.0,76,0.00,,---,0.00,VWS V15.00,2016-02-10 05:40:00,
2016-02-10 00:45:00,58.5,51.0,30.03,West,267,3.0,6.0,76,0.00,,---,0.00,VWS V15.00,2016-02-10 05:45:00,
2016-02-10 00:50:00,58.5,51.0,30.03,WSW,254,4.0,6.0,76,0.00,,---,0.00,VWS V15.00,2016-02-10 05:50:00,
2016-02-10 00:55:00,58.5,51.0,30.03,WNW,284,3.0,6.0,76,0.00,,---,0.00,VWS V15.00,2016-02-10 05:55:00,
2016-02-10 01:00:00,58.5,51.3,30.04,WNW,283,2.0,4.0,77,0.00,,---,0.00,VWS V15.00,2016-02-10 06:00:00,
2016-02-10 01:05:00,58.5,51.7,30.04,WSW,257,4.0,5.0,78,0.00,,---,0.00,VWS V15.00,2016-02-10 06:05:00,
2016-02-10 01:10:00,58.5,51.3,30.04,WNW,282,4.0,7.0,77,0.00,,---,0.00,VWS V15.00,2016-02-10 06:10:00,
2016-02-10 01:15:00,58.5,51.3,30.04,West,264,4.0,7.0,77,0.00,,---,0.00,VWS V15.00,2016-02-10 06:15:00,
2016-02-10 01:20:00,58.5,51.3,30.04,WNW,290,3.0,9.0,77,0.00,,---,0.00,VWS V15.00,2016-02-10 06:20:00,
2016-02-10 01:25:00,58.5,51.3,30.04,WNW,299,3.0,9.0,77,0.00,,---,0.00,VWS V15.00,2016-02-10 06:25:00,
2016-02-10 01:30:00,58.4,50.9,30.05,WNW,289,5.0,5.0,76,0.00,,---,0.00,VWS V15.00,2016-02-10 06:30:00,
2016-02-10 01:35:00,58.3,50.8,30.04,WNW,284,5.0,10.0,76,0.00,,---,0.00,VWS V15.00,2016-02-10 06:35:00,
2016-02-10 01:40:00,58.3,50.8,30.04,WNW,299,5.0,10.0,76,0.00,,---,0.00,VWS V15.00,2016-02-10 06:40:00,
2016-02-10 01:45:00,58.2,50.7,30.05,West,260,4.0,11.0,76,0.00,,---,0.00,VWS V15.00,2016-02-10 06:45:00,
2016-02-10 01:50:00,58.1,50.6,30.05,NW,311,5.0,11.0,76,0.00,,---,0.00,VWS V15.00,2016-02-10 06:50:00,
2016-02-10 01:55:00,58.0,50.1,30.04,WNW,297,3.0,11.0,75,0.00,,---,0.00,VWS V15.00,2016-02-10 06:55:00,
2016-02-10 02:00:00,57.9,49.7,30.04,WNW,300,12.0,12.0,74,0.00,,---,0.00,VWS V15.00,2016-02-10 07:00:00,
2016-02-10 02:05:00,57.9,49.3,30.04,WSW,254,5.0,12.0,73,0.00,,---,0.00,VWS V15.00,2016-02-10 07:05:00,
2016-02-10 02:10:00,57.9,48.9,30.04,NW,307,4.0,12.0,72,0.00,,---,0.00,VWS V15.00,2016-02-10 07:10:00,
2016-02-10 02:15:00,57.8,48.8,30.04,WNW,302,11.0,12.0,72,0.00,,---,0.00,VWS V15.00,2016-02-10 07:15:00,
2016-02-10 02:25:00,57.6,48.7,30.05,WNW,294,11.0,12.0,72,0.00,,---,0.00,VWS V15.00,2016-02-10 07:25:00,
2016-02-10 02:30:00,57.4,48.5,30.05,WNW,300,7.0,7.0,72,0.00,,---,0.00,VWS V15.00,2016-02-10 07:30:00,
2016-02-10 02:35:00,57.3,48.7,30.04,NW,310,6.0,9.0,73,0.00,,---,0.00,VWS V15.00,2016-02-10 07:35:00,
2016-02-10 02:45:00,56.9,48.3,30.04,WNW,284,4.0,10.0,73,0.00,,---,0.00,VWS V15.00,2016-02-10 07:45:00,
2016-02-10 02:50:00,56.8,48.2,30.05,WNW,294,7.0,10.0,73,0.00,,---,0.00,VWS V15.00,2016-02-10 07:50:00,
2016-02-10 02:55:00,56.7,48.2,30.05,WNW,286,4.0,10.0,73,0.00,,---,0.00,VWS V15.00,2016-02-10 07:55:00,
2016-02-10 03:00:00,56.6,48.4,30.05,NW,317,9.0,11.0,74,0.00,,---,0.00,VWS V15.00,2016-02-10 08:00:00,
2016-02-10 03:05:00,56.5,48.7,30.05,NW,315,5.0,13.0,75,0.00,,---,0.00,VWS V15.00,2016-02-10 08:05:00,
2016-02-10 03:10:00,56.3,48.5,30.05,WNW,292,5.0,13.0,75,0.00,,---,0.00,VWS V15.00,2016-02-10 08:10:00,
2016-02-10 03:15:00,56.2,48.4,30.05,NW,307,2.0,13.0,75,0.00,,---,0.00,VWS V15.00,2016-02-10 08:15:00,
2016-02-10 03:20:00,56.1,48.7,30.05,NW,306,4.0,13.0,76,0.00,,---,0.00,VWS V15.00,2016-02-10 08:20:00,
2016-02-10 03:25:00,55.9,48.5,30.05,NW,313,5.0,13.0,76,0.00,,---,0.00,VWS V15.00,2016-02-10 08:25:00,
2016-02-10 03:30:00,55.8,49.0,30.05,WNW,292,6.0,6.0,78,0.00,,---,0.00,VWS V15.00,2016-02-10 08:30:00,
2016-02-10 03:35:00,55.6,48.9,30.05,NW,312,3.0,7.0,78,0.00,,---,0.00,VWS V15.00,2016-02-10 08:35:00,
2016-02-10 03:40:00,55.5,48.8,30.05,WNW,302,4.0,7.0,78,0.00,,---,0.00,VWS V15.00,2016-02-10 08:40:00,
2016-02-10 03:45:00,55.4,48.7,30.05,NW,316,1.0,7.0,78,0.00,,---,0.00,VWS V15.00,2016-02-10 08:45:00,
2016-02-10 03:50:00,55.3,48.6,30.05,WNW,300,3.0,7.0,78,0.00,,---,0.00,VWS V15.00,2016-02-10 08:50:00,
2016-02-10 03:55:00,55.2,48.8,30.05,WNW,300,3.0,7.0,79,0.00,,---,0.00,VWS V15.00,2016-02-10 08:55:00,
2016-02-10 04:00:00,55.1,48.7,30.05,NW,308,3.0,4.0,79,0.00,,---,0.00,VWS V15.00,2016-02-10 09:00:00,
2016-02-10 04:05:00,55.0,48.6,30.05,NW,322,4.0,5.0,79,0.00,,---,0.00,VWS V15.00,2016-02-10 09:05:00,
2016-02-10 04:10:00,54.9,48.5,30.05,NW,322,4.0,5.0,79,0.00,,---,0.00,VWS V15.00,2016-02-10 09:10:00,
2016-02-10 04:15:00,54.8,48.4,30.05,NW,322,2.0,5.0,79,0.00,,---,0.00,VWS V15.00,2016-02-10 09:15:00,
2016-02-10 04:20:00,54.7,48.7,30.05,NW,322,3.0,5.0,80,0.00,,---,0.00,VWS V15.00,2016-02-10 09:20:00,
2016-02-10 04:25:00,54.5,48.5,30.06,NW,322,1.0,5.0,80,0.00,,---,0.00,VWS V15.00,2016-02-10 09:25:00,
2016-02-10 04:30:00,54.5,48.5,30.06,NW,322,2.0,5.0,80,0.00,,---,0.00,VWS V15.00,2016-02-10 09:30:00,
2016-02-10 04:35:00,54.3,48.3,30.06,NW,322,3.0,4.0,80,0.00,,---,0.00,VWS V15.00,2016-02-10 09:35:00,
2016-02-10 04:40:00,54.1,48.4,30.06,NW,320,2.0,4.0,81,0.00,,---,0.00,VWS V15.00,2016-02-10 09:40:00,
2016-02-10 04:45:00,54.0,48.3,30.06,NW,320,3.0,4.0,81,0.00,,---,0.00,VWS V15.00,2016-02-10 09:45:00,
2016-02-10 04:50:00,53.9,47.9,30.06,NW,320,2.0,4.0,80,0.00,,---,0.00,VWS V15.00,2016-02-10 09:50:00,
2016-02-10 04:55:00,53.8,48.1,30.07,NW,320,2.0,4.0,81,0.00,,---,0.00,VWS V15.00,2016-02-10 09:55:00,
2016-02-10 05:00:00,53.7,48.0,30.07,NW,306,2.0,4.0,81,0.00,,---,0.00,VWS V15.00,2016-02-10 10:00:00,
2016-02-10 05:05:00,53.6,48.2,30.07,NW,306,2.0,4.0,82,0.00,,---,0.00,VWS V15.00,2016-02-10 10:05:00,
2016-02-10 05:10:00,53.5,48.2,30.07,NW,306,3.0,4.0,82,0.00,,---,0.00,VWS V15.00,2016-02-10 10:10:00,
2016-02-10 05:15:00,53.4,48.0,30.07,NW,311,3.0,4.0,82,0.00,,---,0.00,VWS V15.00,2016-02-10 10:15:00,
2016-02-10 05:20:00,53.3,48.0,30.08,NNW,329,3.0,10.0,82,0.00,,---,0.00,VWS V15.00,2016-02-10 10:20:00,
2016-02-10 05:25:00,53.3,47.6,30.08,NNW,333,3.0,10.0,81,0.00,,---,0.00,VWS V15.00,2016-02-10 10:25:00,
2016-02-10 05:30:00,53.3,47.6,30.08,NNW,327,5.0,10.0,81,0.00,,---,0.00,VWS V15.00,2016-02-10 10:30:00,
2016-02-10 05:35:00,53.4,47.4,30.08,NW,319,3.0,7.0,80,0.00,,---,0.00,VWS V15.00,2016-02-10 10:35:00,
2016-02-10 05:40:00,53.4,47.4,30.08,NNW,336,2.0,7.0,80,0.00,,---,0.00,VWS V15.00,2016-02-10 10:40:00,
2016-02-10 05:45:00,53.4,47.1,30.09,NNW,333,2.0,7.0,79,0.00,,---,0.00,VWS V15.00,2016-02-10 10:45:00,
2016-02-10 05:50:00,53.4,47.1,30.09,NNW,333,2.0,7.0,79,0.00,,---,0.00,VWS V15.00,2016-02-10 10:50:00,
2016-02-10 06:00:00,53.2,46.9,30.10,NNW,338,5.0,7.0,79,0.00,,---,0.00,VWS V15.00,2016-02-10 11:00:00,
2016-02-10 06:05:00,53.1,46.1,30.11,North,11,3.0,9.0,77,0.00,,---,0.00,VWS V15.00,2016-02-10 11:05:00,
2016-02-10 06:10:00,53.2,46.2,30.11,North,355,5.0,9.0,77,0.00,,---,0.00,VWS V15.00,2016-02-10 11:10:00,
2016-02-10 06:15:00,53.1,45.8,30.11,North,355,3.0,9.0,76,0.00,,---,0.00,VWS V15.00,2016-02-10 11:15:00,
2016-02-10 06:20:00,52.9,45.5,30.11,North,360,2.0,9.0,76,0.00,,---,0.00,VWS V15.00,2016-02-10 11:20:00,
2016-02-10 06:30:00,52.6,44.9,30.12,NNW,348,2.0,9.0,75,0.00,,---,0.00,VWS V15.00,2016-02-10 11:30:00,
2016-02-10 06:35:00,52.5,45.2,30.12,North,351,4.0,5.0,76,0.00,,---,0.00,VWS V15.00,2016-02-10 11:35:00,
2016-02-10 06:45:00,52.3,45.0,30.12,NNW,340,2.0,6.0,76,0.00,,---,0.00,VWS V15.00,2016-02-10 11:45:00,
2016-02-10 06:50:00,52.3,45.0,30.12,North,355,2.0,6.0,76,0.00,,---,0.00,VWS V15.00,2016-02-10 11:50:00,
2016-02-10 06:55:00,52.2,44.5,30.13,NNE,22,4.0,7.0,75,0.00,,---,0.00,VWS V15.00,2016-02-10 11:55:00,
2016-02-10 07:00:00,52.1,44.1,30.12,North,355,2.0,7.0,74,0.00,,---,0.00,VWS V15.00,2016-02-10 12:00:00,
2016-02-10 07:05:00,52.0,44.0,30.12,NNE,13,2.0,5.0,74,0.00,,---,0.00,VWS V15.00,2016-02-10 12:05:00,
2016-02-10 07:10:00,51.9,43.9,30.13,NNW,348,3.0,5.0,74,0.00,,---,0.00,VWS V15.00,2016-02-10 12:10:00,
2016-02-10 07:15:00,51.8,44.1,30.13,NNW,346,3.0,5.0,75,0.00,,---,0.00,VWS V15.00,2016-02-10 12:15:00,
2016-02-10 07:20:00,51.8,44.1,30.13,NNW,346,1.0,5.0,75,0.00,,---,0.00,VWS V15.00,2016-02-10 12:20:00,
2016-02-10 07:25:00,51.7,44.4,30.13,North,9,2.0,5.0,76,0.00,,---,0.00,VWS V15.00,2016-02-10 12:25:00,
2016-02-10 07:30:00,51.6,44.3,30.13,North,11,3.0,7.0,76,0.00,,---,0.00,VWS V15.00,2016-02-10 12:30:00,
2016-02-10 07:35:00,51.7,44.0,30.14,NE,34,2.0,5.0,75,0.00,,---,0.00,VWS V15.00,2016-02-10 12:35:00,
2016-02-10 07:40:00,51.7,44.0,30.14,NE,34,2.0,5.0,75,0.00,,---,0.00,VWS V15.00,2016-02-10 12:40:00,
2016-02-10 07:45:00,51.8,43.8,30.14,NE,34,2.0,5.0,74,0.00,,---,0.00,VWS V15.00,2016-02-10 12:45:00,
2016-02-10 07:50:00,51.8,43.4,30.14,North,10,3.0,5.0,73,0.00,,---,0.00,VWS V15.00,2016-02-10 12:50:00,
2016-02-10 07:55:00,52.0,43.6,30.14,NNE,13,3.0,5.0,73,0.00,,---,0.00,VWS V15.00,2016-02-10 12:55:00,
2016-02-10 08:00:00,52.0,43.3,30.15,North,355,4.0,6.0,72,0.00,,---,0.00,VWS V15.00,2016-02-10 13:00:00,
2016-02-10 08:05:00,52.1,43.4,30.15,North,350,6.0,8.0,72,0.00,,---,0.00,VWS V15.00,2016-02-10 13:05:00,
2016-02-10 08:10:00,52.2,43.5,30.15,North,360,7.0,11.0,72,0.00,,---,0.00,VWS V15.00,2016-02-10 13:10:00,
2016-02-10 08:15:00,52.3,43.2,30.16,North,5,2.0,11.0,71,0.00,,---,0.00,VWS V15.00,2016-02-10 13:15:00,
2016-02-10 08:20:00,52.5,43.4,30.16,NE,36,4.0,11.0,71,0.00,,---,0.00,VWS V15.00,2016-02-10 13:20:00,
2016-02-10 08:25:00,52.6,43.5,30.17,NNW,343,5.0,11.0,71,0.00,,---,0.00,VWS V15.00,2016-02-10 13:25:00,
2016-02-10 08:30:00,52.9,43.0,30.17,NNE,24,4.0,11.0,69,0.00,,---,0.00,VWS V15.00,2016-02-10 13:30:00,
2016-02-10 08:35:00,53.0,42.7,30.17,NNW,336,4.0,11.0,68,0.00,,---,0.00,VWS V15.00,2016-02-10 13:35:00,
2016-02-10 08:40:00,53.2,42.5,30.17,NNW,338,6.0,11.0,67,0.00,,---,0.00,VWS V15.00,2016-02-10 13:40:00,
2016-02-10 08:45:00,53.0,41.6,30.18,North,350,6.0,11.0,65,0.00,,---,0.00,VWS V15.00,2016-02-10 13:45:00,
2016-02-10 08:50:00,52.9,40.7,30.18,NW,319,4.0,12.0,63,0.00,,---,0.00,VWS V15.00,2016-02-10 13:50:00,
2016-02-10 08:55:00,53.0,40.3,30.18,North,349,11.0,13.0,62,0.00,,---,0.00,VWS V15.00,2016-02-10 13:55:00,
2016-02-10 09:00:00,52.9,39.0,30.18,NNE,15,12.0,14.0,59,0.00,,---,0.00,VWS V15.00,2016-02-10 14:00:00,
2016-02-10 09:05:00,53.0,38.2,30.19,NNW,333,12.0,13.0,57,0.00,,---,0.00,VWS V15.00,2016-02-10 14:05:00,
2016-02-10 09:10:00,53.0,37.7,30.19,North,5,4.0,13.0,56,0.00,,---,0.00,VWS V15.00,2016-02-10 14:10:00,
2016-02-10 09:15:00,53.0,37.7,30.19,NW,325,7.0,13.0,56,0.00,,---,0.00,VWS V15.00,2016-02-10 14:15:00,
2016-02-10 09:20:00,53.3,37.1,30.19,NNW,341,6.0,13.0,54,0.00,,---,0.00,VWS V15.00,2016-02-10 14:20:00,
2016-02-10 09:25:00,53.4,36.2,30.19,NNW,348,10.0,14.0,52,0.00,,---,0.00,VWS V15.00,2016-02-10 14:25:00,
2016-02-10 09:30:00,53.2,36.0,30.19,North,355,9.0,14.0,52,0.00,,---,0.00,VWS V15.00,2016-02-10 14:30:00,
2016-02-10 09:35:00,53.3,37.1,30.19,NNW,331,12.0,12.0,54,0.00,,---,0.00,VWS V15.00,2016-02-10 14:35:00,
2016-02-10 09:40:00,53.8,37.6,30.20,NE,39,10.0,12.0,54,0.00,,---,0.00,VWS V15.00,2016-02-10 14:40:00,
2016-02-10 09:45:00,53.6,36.4,30.19,NE,44,10.0,12.0,52,0.00,,---,0.00,VWS V15.00,2016-02-10 14:45:00,
2016-02-10 09:50:00,53.6,36.9,30.20,NNE,28,5.0,12.0,53,0.00,,---,0.00,VWS V15.00,2016-02-10 14:50:00,
2016-02-10 09:55:00,54.0,36.8,30.20,NNE,31,6.0,12.0,52,0.00,,---,0.00,VWS V15.00,2016-02-10 14:55:00,
2016-02-10 10:00:00,54.0,36.8,30.20,NE,38,9.0,12.0,52,0.00,,---,0.00,VWS V15.00,2016-02-10 15:00:00,
2016-02-10 10:05:00,54.1,36.9,30.20,North,360,12.0,13.0,52,0.00,,---,0.00,VWS V15.00,2016-02-10 15:05:00,
2016-02-10 10:10:00,54.1,36.4,30.20,NNW,340,6.0,13.0,51,0.00,,---,0.00,VWS V15.00,2016-02-10 15:10:00,
2016-02-10 10:15:00,54.4,38.1,30.20,NNE,12,6.0,13.0,54,0.00,,---,0.00,VWS V15.00,2016-02-10 15:15:00,
2016-02-10 10:20:00,54.4,36.2,30.21,NNE,26,9.0,13.0,50,0.00,,---,0.00,VWS V15.00,2016-02-10 15:20:00,
2016-02-10 10:25:00,54.4,37.2,30.20,NNE,14,7.0,13.0,52,0.00,,---,0.00,VWS V15.00,2016-02-10 15:25:00,
2016-02-10 10:30:00,54.4,36.7,30.20,NE,36,6.0,13.0,51,0.00,,---,0.00,VWS V15.00,2016-02-10 15:30:00,
2016-02-10 10:35:00,54.3,37.1,30.20,NNE,19,9.0,10.0,52,0.00,,---,0.00,VWS V15.00,2016-02-10 15:35:00,
2016-02-10 10:40:00,54.7,38.4,30.21,NNW,329,6.0,10.0,54,0.00,,---,0.00,VWS V15.00,2016-02-10 15:40:00,
2016-02-10 10:45:00,55.0,37.7,30.20,North,5,4.0,12.0,52,0.00,,---,0.00,VWS V15.00,2016-02-10 15:45:00,
2016-02-10 10:50:00,55.1,37.3,30.20,NW,311,7.0,12.0,51,0.00,,---,0.00,VWS V15.00,2016-02-10 15:50:00,
2016-02-10 10:55:00,55.0,37.2,30.21,NW,319,6.0,12.0,51,0.00,,---,0.00,VWS V15.00,2016-02-10 15:55:00,
2016-02-10 11:00:00,54.9,36.1,30.20,North,5,9.0,12.0,49,0.00,,---,0.00,VWS V15.00,2016-02-10 16:00:00,
2016-02-10 11:05:00,54.8,36.5,30.20,NNW,345,10.0,11.0,50,0.00,,---,0.00,VWS V15.00,2016-02-10 16:05:00,
2016-02-10 11:10:00,55.1,37.8,30.20,North,349,6.0,12.0,52,0.00,,---,0.00,VWS V15.00,2016-02-10 16:10:00,
2016-02-10 11:25:00,55.2,37.4,30.20,NW,312,9.0,12.0,51,0.00,,---,0.00,VWS V15.00,2016-02-10 16:25:00,
2016-02-10 11:30:00,54.9,36.6,30.20,NW,311,6.0,12.0,50,0.00,,---,0.00,VWS V15.00,2016-02-10 16:30:00,
2016-02-10 11:35:00,55.2,37.4,30.19,North,9,5.0,10.0,51,0.00,,---,0.00,VWS V15.00,2016-02-10 16:35:00,
2016-02-10 11:40:00,55.4,35.5,30.20,NW,319,5.0,11.0,47,0.00,,---,0.00,VWS V15.00,2016-02-10 16:40:00,
2016-02-10 11:45:00,55.1,35.8,30.19,NNW,333,5.0,12.0,48,0.00,,---,0.00,VWS V15.00,2016-02-10 16:45:00,
2016-02-10 11:50:00,55.5,35.6,30.19,NW,314,4.0,12.0,47,0.00,,---,0.00,VWS V15.00,2016-02-10 16:50:00,
2016-02-10 11:55:00,55.8,35.9,30.19,WNW,292,5.0,12.0,47,0.00,,---,0.00,VWS V15.00,2016-02-10 16:55:00,
2016-02-10 12:05:00,55.6,35.2,30.19,NW,307,7.0,12.0,46,0.00,,---,0.00,VWS V15.00,2016-02-10 17:05:00,
2016-02-10 12:10:00,55.6,35.7,30.19,NW,315,6.0,12.0,47,0.00,,---,0.00,VWS V15.00,2016-02-10 17:10:00,
2016-02-10 12:15:00,55.7,34.7,30.18,NNW,338,8.0,12.0,45,0.00,,---,0.00,VWS V15.00,2016-02-10 17:15:00,
2016-02-10 12:20:00,55.9,35.4,30.18,North,11,6.0,12.0,46,0.00,,---,0.00,VWS V15.00,2016-02-10 17:20:00,
2016-02-10 12:25:00,56.0,35.0,30.18,NNW,329,4.0,13.0,45,0.00,,---,0.00,VWS V15.00,2016-02-10 17:25:00,
2016-02-10 12:30:00,55.9,34.3,30.18,NNW,342,4.0,13.0,44,0.00,,---,0.00,VWS V15.00,2016-02-10 17:30:00,
2016-02-10 12:35:00,56.1,35.1,30.18,NNE,16,6.0,11.0,45,0.00,,---,0.00,VWS V15.00,2016-02-10 17:35:00,
2016-02-10 12:40:00,56.1,34.5,30.17,North,360,6.0,11.0,44,0.00,,---,0.00,VWS V15.00,2016-02-10 17:40:00,
2016-02-10 12:45:00,56.5,35.4,30.17,NNE,23,7.0,11.0,45,0.00,,---,0.00,VWS V15.00,2016-02-10 17:45:00,
2016-02-10 12:50:00,56.6,33.8,30.17,North,355,2.0,11.0,42,0.00,,---,0.00,VWS V15.00,2016-02-10 17:50:00,
2016-02-10 12:55:00,56.4,35.3,30.17,NNW,327,4.0,11.0,45,0.00,,---,0.00,VWS V15.00,2016-02-10 17:55:00,
2016-02-10 13:00:00,56.6,35.0,30.16,NW,319,4.0,11.0,44,0.00,,---,0.00,VWS V15.00,2016-02-10 18:00:00,
2016-02-10 13:05:00,56.7,36.2,30.16,NW,317,7.0,11.0,46,0.00,,---,0.00,VWS V15.00,2016-02-10 18:05:00,
2016-02-10 13:10:00,56.8,34.6,30.16,WNW,300,2.0,11.0,43,0.00,,---,0.00,VWS V15.00,2016-02-10 18:10:00,
2016-02-10 13:15:00,57.1,35.4,30.16,WNW,282,4.0,11.0,44,0.00,,---,0.00,VWS V15.00,2016-02-10 18:15:00,
2016-02-10 13:20:00,57.4,36.2,30.15,NNW,334,3.0,11.0,45,0.00,,---,0.00,VWS V15.00,2016-02-10 18:20:00,
2016-02-10 13:25:00,57.4,36.2,30.15,WSW,254,7.0,11.0,45,0.00,,---,0.00,VWS V15.00,2016-02-10 18:25:00,
2016-02-10 13:30:00,58.0,36.8,30.15,WNW,298,6.0,11.0,45,0.00,,---,0.00,VWS V15.00,2016-02-10 18:30:00,
2016-02-10 13:35:00,58.2,37.5,30.15,WNW,299,4.0,7.0,46,0.00,,---,0.00,VWS V15.00,2016-02-10 18:35:00,
2016-02-10 13:40:00,58.3,37.6,30.15,NW,304,4.0,7.0,46,0.00,,---,0.00,VWS V15.00,2016-02-10 18:40:00,
2016-02-10 13:45:00,58.2,38.1,30.14,NW,315,9.0,12.0,47,0.00,,---,0.00,VWS V15.00,2016-02-10 18:45:00,
2016-02-10 13:50:00,58.1,37.5,30.14,NW,317,5.0,12.0,46,0.00,,---,0.00,VWS V15.00,2016-02-10 18:50:00,
2016-02-10 13:55:00,58.3,39.2,30.14,NW,317,9.0,13.0,49,0.00,,---,0.00,VWS V15.00,2016-02-10 18:55:00,
2016-02-10 14:00:00,58.3,38.2,30.14,WNW,297,7.0,13.0,47,0.00,,---,0.00,VWS V15.00,2016-02-10 19:00:00,
2016-02-10 14:05:00,58.1,37.5,30.14,West,280,5.0,11.0,46,0.00,,---,0.00,VWS V15.00,2016-02-10 19:05:00,
2016-02-10 14:10:00,58.1,37.5,30.14,West,271,3.0,11.0,46,0.00,,---,0.00,VWS V15.00,2016-02-10 19:10:00,
2016-02-10 14:15:00,58.7,39.1,30.13,West,262,4.0,11.0,48,0.00,,---,0.00,VWS V15.00,2016-02-10 19:15:00,
2016-02-10 14:20:00,58.9,37.0,30.13,NW,309,2.0,11.0,44,0.00,,---,0.00,VWS V15.00,2016-02-10 19:20:00,
2016-02-10 14:25:00,58.9,38.2,30.13,WNW,296,10.0,11.0,46,0.00,,---,0.00,VWS V15.00,2016-02-10 19:25:00,
2016-02-10 14:30:00,59.0,37.7,30.13,West,275,4.0,11.0,45,0.00,,---,0.00,VWS V15.00,2016-02-10 19:30:00,
2016-02-10 14:35:00,59.1,38.9,30.13,WNW,284,4.0,8.0,47,0.00,,---,0.00,VWS V15.00,2016-02-10 19:35:00,
2016-02-10 14:40:00,59.1,38.9,30.13,WSW,238,3.0,8.0,47,0.00,,---,0.00,VWS V15.00,2016-02-10 19:40:00,
2016-02-10 14:45:00,59.4,39.2,30.13,WNW,301,4.0,9.0,47,0.00,,---,0.00,VWS V15.00,2016-02-10 19:45:00,
2016-02-10 14:50:00,59.3,38.0,30.13,WNW,296,4.0,9.0,45,0.00,,---,0.00,VWS V15.00,2016-02-10 19:50:00,
2016-02-10 15:00:00,59.2,38.5,30.13,NW,306,5.0,11.0,46,0.00,,---,0.00,VWS V15.00,2016-02-10 20:00:00,
2016-02-10 15:05:00,59.5,38.7,30.13,North,360,10.0,10.0,46,0.00,,---,0.00,VWS V15.00,2016-02-10 20:05:00,
2016-02-10 15:15:00,59.3,39.6,30.13,NW,325,4.0,10.0,48,0.00,,---,0.00,VWS V15.00,2016-02-10 20:15:00,
2016-02-10 15:20:00,59.3,40.2,30.13,WSW,250,4.0,10.0,49,0.00,,---,0.00,VWS V15.00,2016-02-10 20:20:00,
2016-02-10 15:25:00,59.8,40.6,30.13,SW,228,7.0,10.0,49,0.00,,---,0.00,VWS V15.00,2016-02-10 20:25:00,
2016-02-10 15:30:00,60.1,40.9,30.13,West,264,4.0,10.0,49,0.00,,---,0.00,VWS V15.00,2016-02-10 20:30:00,
2016-02-10 15:35:00,60.0,40.8,30.12,WSW,237,4.0,8.0,49,0.00,,---,0.00,VWS V15.00,2016-02-10 20:35:00,
2016-02-10 15:40:00,60.2,41.0,30.12,West,268,4.0,9.0,49,0.00,,---,0.00,VWS V15.00,2016-02-10 20:40:00,
2016-02-10 15:45:00,60.0,41.3,30.12,WNW,296,3.0,9.0,50,0.00,,---,0.00,VWS V15.00,2016-02-10 20:45:00,
2016-02-10 15:50:00,59.9,41.2,30.12,WSW,246,2.0,9.0,50,0.00,,---,0.00,VWS V15.00,2016-02-10 20:50:00,
2016-02-10 15:55:00,60.8,41.0,30.12,WNW,300,7.0,10.0,48,0.00,,---,0.00,VWS V15.00,2016-02-10 20:55:00,
2016-02-10 16:00:00,61.1,40.2,30.12,SW,232,6.0,11.0,46,0.00,,---,0.00,VWS V15.00,2016-02-10 21:00:00,
2016-02-10 16:10:00,60.3,40.5,30.12,WSW,246,3.0,13.0,48,0.00,,---,0.00,VWS V15.00,2016-02-10 21:10:00,
2016-02-10 16:20:00,60.8,41.5,30.12,West,277,2.0,13.0,49,0.00,,---,0.00,VWS V15.00,2016-02-10 21:20:00,
2016-02-10 16:25:00,61.1,42.8,30.12,WNW,290,3.0,13.0,51,0.00,,---,0.00,VWS V15.00,2016-02-10 21:25:00,
2016-02-10 16:30:00,61.1,41.3,30.12,West,269,5.0,13.0,48,0.00,,---,0.00,VWS V15.00,2016-02-10 21:30:00,
2016-02-10 16:35:00,60.8,42.6,30.12,WNW,298,5.0,9.0,51,0.00,,---,0.00,VWS V15.00,2016-02-10 21:35:00,
2016-02-10 16:40:00,60.9,41.6,30.13,WSW,250,10.0,10.0,49,0.00,,---,0.00,VWS V15.00,2016-02-10 21:40:00,
2016-02-10 16:45:00,61.1,41.8,30.13,West,276,10.0,11.0,49,0.00,,---,0.00,VWS V15.00,2016-02-10 21:45:00,
2016-02-10 16:50:00,61.1,42.8,30.13,WNW,289,3.0,13.0,51,0.00,,---,0.00,VWS V15.00,2016-02-10 21:50:00,
2016-02-10 16:55:00,61.0,42.8,30.13,WNW,297,1.0,13.0,51,0.00,,---,0.00,VWS V15.00,2016-02-10 21:55:00,
2016-02-10 17:00:00,60.8,43.1,30.13,NW,304,8.0,13.0,52,0.00,,---,0.00,VWS V15.00,2016-02-10 22:00:00,
2016-02-10 17:05:00,60.8,43.6,30.13,WNW,295,3.0,13.0,53,0.00,,---,0.00,VWS V15.00,2016-02-10 22:05:00,
2016-02-10 17:10:00,61.0,42.8,30.13,WNW,294,10.0,13.0,51,0.00,,---,0.00,VWS V15.00,2016-02-10 22:10:00,
2016-02-10 17:15:00,60.9,43.2,30.13,WSW,248,6.0,13.0,52,0.00,,---,0.00,VWS V15.00,2016-02-10 22:15:00,
2016-02-10 17:20:00,61.0,43.3,30.13,West,278,4.0,13.0,52,0.00,,---,0.00,VWS V15.00,2016-02-10 22:20:00,
2016-02-10 17:25:00,60.9,44.2,30.13,West,278,3.0,13.0,54,0.00,,---,0.00,VWS V15.00,2016-02-10 22:25:00,
2016-02-10 17:30:00,60.8,44.1,30.13,NW,311,4.0,13.0,54,0.00,,---,0.00,VWS V15.00,2016-02-10 22:30:00,
2016-02-10 17:35:00,60.8,44.1,30.13,NW,308,7.0,10.0,54,0.00,,---,0.00,VWS V15.00,2016-02-10 22:35:00,
2016-02-10 17:40:00,60.6,43.9,30.13,WNW,290,6.0,10.0,54,0.00,,---,0.00,VWS V15.00,2016-02-10 22:40:00,
2016-02-10 17:45:00,60.4,44.7,30.13,West,268,6.0,10.0,56,0.00,,---,0.00,VWS V15.00,2016-02-10 22:45:00,
2016-02-10 17:50:00,60.3,44.6,30.13,WSW,249,2.0,10.0,56,0.00,,---,0.00,VWS V15.00,2016-02-10 22:50:00,
2016-02-10 17:55:00,60.1,44.8,30.13,WNW,284,3.0,10.0,57,0.00,,---,0.00,VWS V15.00,2016-02-10 22:55:00,
2016-02-10 18:00:00,59.9,45.1,30.14,WNW,285,3.0,10.0,58,0.00,,---,0.00,VWS V15.00,2016-02-10 23:00:00,
2016-02-10 18:05:00,59.7,45.4,30.14,WSW,258,4.0,5.0,59,0.00,,---,0.00,VWS V15.00,2016-02-10 23:05:00,
2016-02-10 18:10:00,59.5,45.2,30.14,West,271,2.0,6.0,59,0.00,,---,0.00,VWS V15.00,2016-02-10 23:10:00,
2016-02-10 18:15:00,59.4,46.0,30.14,WNW,284,2.0,6.0,61,0.00,,---,0.00,VWS V15.00,2016-02-10 23:15:00,
2016-02-10 18:25:00,59.0,45.2,30.14,West,268,4.0,6.0,60,0.00,,---,0.00,VWS V15.00,2016-02-10 23:25:00,
2016-02-10 18:30:00,58.8,45.4,30.14,WNW,282,2.0,6.0,61,0.00,,---,0.00,VWS V15.00,2016-02-10 23:30:00,
2016-02-10 18:35:00,58.7,46.2,30.15,WNW,282,2.0,3.0,63,0.00,,---,0.00,VWS V15.00,2016-02-10 23:35:00,
2016-02-10 18:40:00,58.5,46.4,30.15,WNW,290,3.0,4.0,64,0.00,,---,0.00,VWS V15.00,2016-02-10 23:40:00,
2016-02-10 18:45:00,58.3,46.6,30.15,WNW,303,4.0,5.0,65,0.00,,---,0.00,VWS V15.00,2016-02-10 23:45:00,
2016-02-10 18:50:00,58.1,46.4,30.16,WNW,294,4.0,5.0,65,0.00,,---,0.00,VWS V15.00,2016-02-10 23:50:00,
2016-02-10 18:54:00,57.9,47.0,30.16,WNW,302,2.0,6.0,67,0.00,,---,0.00,VWS V15.00,2016-02-10 23:54:00,
2016-02-10 18:59:00,57.9,47.0,30.16,NW,322,3.0,6.0,67,0.00,,---,0.00,VWS V15.00,2016-02-10 23:59:00,
2016-02-10 19:04:00,57.7,47.6,30.16,NW,321,4.0,6.0,69,0.00,,---,0.00,VWS V15.00,2016-02-11 00:04:00,
2016-02-10 19:09:00,57.5,47.4,30.16,NW,306,4.0,6.0,69,0.00,,---,0.00,VWS V15.00,2016-02-11 00:09:00,
2016-02-10 19:14:00,57.3,46.8,30.16,NW,322,4.0,6.0,68,0.00,,---,0.00,VWS V15.00,2016-02-11 00:14:00,
2016-02-10 19:19:00,57.2,47.1,30.17,WNW,301,4.0,6.0,69,0.00,,---,0.00,VWS V15.00,2016-02-11 00:19:00,
2016-02-10 19:24:00,57.1,46.7,30.17,WNW,285,3.0,7.0,68,0.00,,---,0.00,VWS V15.00,2016-02-11 00:24:00,
2016-02-10 19:39:00,57.0,45.4,30.17,WNW,298,3.0,7.0,65,0.00,,---,0.00,VWS V15.00,2016-02-11 00:39:00,
2016-02-10 19:44:00,56.9,45.7,30.17,NW,325,5.0,7.0,66,0.00,,---,0.00,VWS V15.00,2016-02-11 00:44:00,
2016-02-10 19:49:00,56.8,45.6,30.18,WNW,302,1.0,7.0,66,0.00,,---,0.00,VWS V15.00,2016-02-11 00:49:00,
2016-02-10 19:54:00,56.7,45.9,30.18,WNW,302,2.0,7.0,67,0.00,,---,0.00,VWS V15.00,2016-02-11 00:54:00,
2016-02-10 19:59:00,56.5,45.7,30.18,WNW,302,3.0,7.0,67,0.00,,---,0.00,VWS V15.00,2016-02-11 00:59:00,
2016-02-10 20:04:00,56.4,45.6,30.18,NW,305,4.0,4.0,67,0.00,,---,0.00,VWS V15.00,2016-02-11 01:04:00,
2016-02-10 20:09:00,56.3,45.9,30.18,WNW,299,3.0,5.0,68,0.00,,---,0.00,VWS V15.00,2016-02-11 01:09:00,
2016-02-10 20:14:00,56.2,45.4,30.19,WNW,286,6.0,6.0,67,0.00,,---,0.00,VWS V15.00,2016-02-11 01:14:00,
2016-02-10 20:19:00,56.3,45.9,30.19,WNW,298,3.0,6.0,68,0.00,,---,0.00,VWS V15.00,2016-02-11 01:19:00,
2016-02-10 20:24:00,56.3,45.9,30.19,WNW,300,4.0,6.0,68,0.00,,---,0.00,VWS V15.00,2016-02-11 01:24:00,
2016-02-10 20:29:00,56.4,46.0,30.19,WNW,293,6.0,7.0,68,0.00,,---,0.00,VWS V15.00,2016-02-11 01:29:00,
2016-02-10 20:34:00,56.5,46.1,30.19,WNW,296,7.0,7.0,68,0.00,,---,0.00,VWS V15.00,2016-02-11 01:34:00,
2016-02-10 20:44:00,56.5,46.5,30.19,WNW,296,6.0,15.0,69,0.00,,---,0.00,VWS V15.00,2016-02-11 01:44:00,
2016-02-10 20:49:00,56.4,46.4,30.19,WNW,296,8.0,15.0,69,0.00,,---,0.00,VWS V15.00,2016-02-11 01:49:00,
2016-02-10 20:54:00,56.3,46.3,30.19,WNW,302,6.0,15.0,69,0.00,,---,0.00,VWS V15.00,2016-02-11 01:54:00,
2016-02-10 20:59:00,56.1,46.5,30.19,WNW,286,6.0,15.0,70,0.00,,---,0.00,VWS V15.00,2016-02-11 01:59:00,
2016-02-10 21:09:00,55.9,46.3,30.19,NW,309,9.0,15.0,70,0.00,,---,0.00,VWS V15.00,2016-02-11 02:09:00,
2016-02-10 21:14:00,55.8,46.2,30.19,West,279,9.0,15.0,70,0.00,,---,0.00,VWS V15.00,2016-02-11 02:14:00,
2016-02-10 21:19:00,55.7,46.5,30.20,WSW,252,5.0,15.0,71,0.00,,---,0.00,VWS V15.00,2016-02-11 02:19:00,
2016-02-10 21:24:00,55.5,46.3,30.20,NW,315,13.0,18.0,71,0.00,,---,0.00,VWS V15.00,2016-02-11 02:24:00,
2016-02-10 21:29:00,55.3,46.1,30.20,NW,319,7.0,19.0,71,0.00,,---,0.00,VWS V15.00,2016-02-11 02:29:00,
2016-02-10 21:34:00,55.1,45.9,30.21,NW,309,8.0,17.0,71,0.00,,---,0.00,VWS V15.00,2016-02-11 02:34:00,
2016-02-10 21:39:00,55.0,46.2,30.21,NW,311,13.0,17.0,72,0.00,,---,0.00,VWS V15.00,2016-02-11 02:39:00,
2016-02-10 21:44:00,54.7,45.9,30.21,NW,308,13.0,17.0,72,0.00,,---,0.00,VWS V15.00,2016-02-11 02:44:00,
2016-02-10 21:49:00,54.7,46.2,30.21,WSW,254,11.0,17.0,73,0.00,,---,0.00,VWS V15.00,2016-02-11 02:49:00,
2016-02-10 21:54:00,54.4,46.3,30.21,WNW,297,4.0,17.0,74,0.00,,---,0.00,VWS V15.00,2016-02-11 02:54:00,
2016-02-10 21:59:00,54.3,46.2,30.21,NW,306,5.0,19.0,74,0.00,,---,0.00,VWS V15.00,2016-02-11 02:59:00,
2016-02-10 22:04:00,54.1,46.4,30.21,NW,323,10.0,11.0,75,0.00,,---,0.00,VWS V15.00,2016-02-11 03:04:00,
2016-02-10 22:09:00,53.9,46.2,30.21,NW,326,9.0,15.0,75,0.00,,---,0.00,VWS V15.00,2016-02-11 03:09:00,
2016-02-10 22:14:00,53.8,46.1,30.21,West,266,6.0,15.0,75,0.00,,---,0.00,VWS V15.00,2016-02-11 03:14:00,
2016-02-10 22:19:00,53.7,46.0,30.22,WNW,298,4.0,15.0,75,0.00,,---,0.00,VWS V15.00,2016-02-11 03:19:00,
2016-02-10 22:24:00,53.5,45.4,30.22,WNW,300,10.0,15.0,74,0.00,,---,0.00,VWS V15.00,2016-02-11 03:24:00,
2016-02-10 22:29:00,53.4,45.3,30.21,WNW,288,8.0,15.0,74,0.00,,---,0.00,VWS V15.00,2016-02-11 03:29:00,
2016-02-10 22:34:00,53.3,45.2,30.22,NW,304,4.0,12.0,74,0.00,,---,0.00,VWS V15.00,2016-02-11 03:34:00,
2016-02-10 22:39:00,53.1,44.7,30.22,WNW,300,8.0,12.0,73,0.00,,---,0.00,VWS V15.00,2016-02-11 03:39:00,
2016-02-10 22:44:00,52.9,44.1,30.22,West,275,4.0,13.0,72,0.00,,---,0.00,VWS V15.00,2016-02-11 03:44:00,
2016-02-10 22:49:00,52.7,43.9,30.22,NW,314,8.0,13.0,72,0.00,,---,0.00,VWS V15.00,2016-02-11 03:49:00,
2016-02-10 22:54:00,52.6,43.8,30.22,WNW,302,10.0,13.0,72,0.00,,---,0.00,VWS V15.00,2016-02-11 03:54:00,
2016-02-10 22:59:00,52.4,43.7,30.22,WNW,302,6.0,13.0,72,0.00,,---,0.00,VWS V15.00,2016-02-11 03:59:00,
2016-02-10 23:04:00,52.2,43.5,30.22,WNW,298,6.0,12.0,72,0.00,,---,0.00,VWS V15.00,2016-02-11 04:04:00,
2016-02-10 23:09:00,52.1,43.4,30.22,NW,308,6.0,12.0,72,0.00,,---,0.00,VWS V15.00,2016-02-11 04:09:00,
2016-02-10 23:14:00,51.9,43.5,30.21,WNW,292,6.0,12.0,73,0.00,,---,0.00,VWS V15.00,2016-02-11 04:14:00,
2016-02-10 23:19:00,51.9,43.9,30.22,WNW,292,7.0,12.0,74,0.00,,---,0.00,VWS V15.00,2016-02-11 04:19:00,
2016-02-10 23:24:00,51.8,43.4,30.22,WNW,284,4.0,12.0,73,0.00,,---,0.00,VWS V15.00,2016-02-11 04:24:00,
2016-02-10 23:29:00,51.6,43.2,30.22,NW,313,6.0,12.0,73,0.00,,---,0.00,VWS V15.00,2016-02-11 04:29:00,
2016-02-10 23:39:00,51.4,43.0,30.22,NW,304,4.0,7.0,73,0.00,,---,0.00,VWS V15.00,2016-02-11 04:39:00,
2016-02-10 23:44:00,51.3,42.6,30.22,WNW,296,5.0,7.0,72,0.00,,---,0.00,VWS V15.00,2016-02-11 04:44:00,